This is the latest recevied weather packets stored in our database for station/object DG4DAA-13. If no packets are shown the sender has not sent any weather packets the latest 10 day(s).
| Time | Temp. | Humidity | Pressure | Rain* | Wind** | Luminosity | Snow |
|---|---|---|---|---|---|---|---|
| 1777808306 | 23.89° C | 43% | 1013.1 hPa | 0 mm | - | - | - |
| 1777806506 | 23.33° C | 43% | 1013.2 hPa | 0 mm | - | - | - |
| 1777804706 | 22.78° C | 50% | 1013.5 hPa | 0 mm | - | - | - |
| 1777802908 | 22.78° C | 55% | 1013.6 hPa | 0 mm | - | - | - |
| 1777801106 | 22.22° C | 57% | 1013.9 hPa | 0 mm | - | - | - |
| 1777799306 | 21.11° C | 59% | 1014.1 hPa | 0 mm | - | - | - |
| 1777797506 | 20.56° C | 64% | 1014 hPa | 0 mm | - | - | - |
| 1777795706 | 20° C | 70% | 1014 hPa | 0 mm | - | - | - |
| 1777793906 | 18.33° C | 78% | 1014 hPa | 0 mm | - | - | - |
| 1777792106 | 17.22° C | 89% | 1014 hPa | 0 mm | - | - | - |
| 1777790360 | 16.11° C | 93% | 1014.1 hPa | 0 mm | - | - | - |
| 1777790311 | 16.11° C | 93% | 1014.1 hPa | 0 mm | - | - | - |
| 1777790307 | 16.11° C | 93% | 1014.1 hPa | 0 mm | - | - | - |
| 1777788532 | 13.89° C | 93% | 1014.3 hPa | 0 mm | - | - | - |
| 1777788508 | 13.89° C | 93% | 1014.3 hPa | 0 mm | - | - | - |
| 1777788506 | 13.89° C | 93% | 1014.3 hPa | 0 mm | - | - | - |
| 1777786706 | 12.78° C | 93% | 1014 hPa | 0 mm | - | - | - |
| 1777784982 | 12.22° C | 93% | 1014.1 hPa | 0 mm | - | - | - |
| 1777784906 | 12.22° C | 93% | 1014.1 hPa | 0 mm | - | - | - |
| 1777783107 | 11.67° C | 93% | 1014.1 hPa | 0 mm | - | - | - |
| 1777781360 | 11.67° C | 93% | 1014.3 hPa | 0 mm | - | - | - |
| 1777781307 | 11.67° C | 93% | 1014.3 hPa | 0 mm | - | - | - |
| 1777779507 | 11.67° C | 92% | 1014.5 hPa | 0 mm | - | - | - |
| 1777777707 | 11.67° C | 92% | 1014.7 hPa | 0 mm | - | - | - |
| 1777775907 | 12.22° C | 92% | 1014.8 hPa | 0 mm | - | - | - |
* Rain latest hour (hover to see other rain measurements)
** Current wind speed in m/s (hover to see current wind gust speed)